EW9154 Weather Reports


Display with metric or nautical units.
time (UTC)temp
F
wind
direction
speed
MPH
gust
MPH
rain 1hr
in
rain 24hr
in
rain mn
in
humidity
%
barometer
mb
20260906063947 72 111 0.0 0.0 0.00 0.00 0.00 88 1031.3
20260906063446 72 111 0.0 0.0 0.00 0.00 0.00 88 1031.2
20260906062925 72 109 0.0 0.0 0.00 0.00 0.00 88 1031.2
20260906062344 72 104 0.0 0.0 0.00 0.00 0.00 88 1031.1
20260906061841 72 100 0.0 0.0 0.00 0.00 0.00 88 1031.2
20260906061316 73 100 0.0 0.0 0.00 0.00 0.00 88 1031.2
20260906060811 73 88 0.0 0.0 0.00 0.00 0.00 88 1031.3
20260906060310 73 88 0.0 0.0 0.00 0.00 0.00 88 1031.3
20260906055753 73 96 0.0 0.0 0.00 0.00 0.00 89 1031.2
20260906055255 73 95 0.0 0.0 0.00 0.00 0.00 88 1031.2
20260906054730 73 91 0.0 0.0 0.00 0.00 0.00 88 1031.2
20260906054502 73 92 0.0 0.0 0.00 0.00 0.00 88 1031.2
20260906053943 73 80 0.0 0.0 0.00 0.00 0.00 88 1031.2
20260906053210 73 74 0.0 0.0 0.00 0.00 0.00 88 1031.2
20260906052642 73 71 0.0 0.0 0.00 0.00 0.00 87 1031.2
20260906052131 73 69 0.0 0.0 0.00 0.00 0.00 87 1031.2
20260906051628 73 74 0.0 0.0 0.00 0.00 0.00 87 1031.2
20260906051104 73 66 0.0 0.0 0.00 0.00 0.00 87 1031.2
20260906050538 73 76 0.0 0.0 0.00 0.00 0.00 87 1031.4
20260906050011 73 76 0.0 0.0 0.00 0.00 0.00 87 1031.5
20260906045455 73 76 0.0 0.0 0.00 0.00 0.00 87 1031.5
20260906045226 73 76 0.0 0.0 0.00 0.00 0.00 87 1031.5
20260906044723 73 71 0.0 0.0 0.00 0.00 0.00 87 1031.5
20260906044222 74 71 0.0 0.0 0.00 0.00 0.00 87 1031.6
20260906043424 74 71 0.0 0.0 0.00 0.00 0.00 87 1031.6
20260906042851 74 71 0.0 0.0 0.00 0.00 0.00 87 1031.5
20260906042602 74 71 0.0 0.0 0.00 0.00 0.00 87 1031.6
20260906041752 74 68 0.0 0.0 0.00 0.00 0.00 87 1031.7
20260906041222 74 68 0.0 0.0 0.00 0.00 0.00 87 1031.6
20260906040719 74 67 0.0 0.0 0.00 0.00 0.00 87 1031.5
20260906040153 74 65 0.0 0.0 0.00 0.00 0.00 87 1031.6
20260906035630 74 65 0.0 0.0 0.00 0.00 0.00 87 1031.6
20260906035128 74 65 0.0 0.0 0.00 0.00 0.00 87 1031.6
20260906034629 74 169 0.0 0.0 0.00 0.00 0.00 86 1031.6
20260906034128 74 169 0.0 0.0 0.00 0.00 0.00 86 1031.5
20260906033629 74 169 0.0 0.0 0.00 0.00 0.00 86 1031.5
20260906033101 74 169 0.0 0.0 0.00 0.00 0.00 86 1031.5
20260906032600 74 169 0.0 0.0 0.00 0.00 0.00 85 1031.5
20260906032039 74 169 0.0 0.0 0.00 0.00 0.00 85 1031.5
20260906031517 74 169 0.0 0.0 0.00 0.00 0.00 85 1031.4
20260906031016 74 169 0.0 0.0 0.00 0.00 0.00 85 1031.4
20260906030450 74 169 0.0 0.0 0.00 0.00 0.00 85 1031.5
20260906025945 74 169 0.0 0.0 0.00 0.00 0.00 85 1031.6
20260906025441 74 169 0.0 0.0 0.00 0.00 0.00 84 1031.6
20260906025215 74 169 0.0 0.0 0.00 0.00 0.00 84 1031.6
20260906024441 75 169 0.0 0.0 0.00 0.00 0.00 84 1031.7
20260906023913 75 169 0.0 0.0 0.00 0.00 0.00 84 1031.8
20260906023642 75 169 0.0 0.0 0.00 0.00 0.00 84 1031.6
20260906022851 75 169 0.0 0.0 0.00 0.00 0.00 84 1031.5
20260906022349 75 169 0.0 0.0 0.00 0.00 0.00 84 1031.5
20260906022119 75 188 0.0 0.0 0.00 0.00 0.00 84 1031.4
20260906021352 75 188 0.0 0.0 0.00 0.00 0.00 84 1031.3
20260906020839 75 188 0.0 0.0 0.00 0.00 0.00 84 1031.1
20260906020340 75 188 0.0 0.0 0.00 0.00 0.00 84 1030.9
20260906015821 75 190 0.0 0.0 0.00 0.00 0.00 83 1030.7
20260906015550 76 190 0.0 0.0 0.00 0.00 0.00 83 1030.6
20260906014818 76 190 0.0 0.0 0.00 0.00 0.00 82 1030.5
20260906014550 76 190 0.0 0.0 0.00 0.00 0.00 82 1030.4
20260906013817 76 190 0.0 0.0 0.00 0.00 0.00 82 1030.2
20260906013252 76 188 0.0 0.0 0.00 0.00 0.00 81 1030.2
20260906012725 76 176 0.0 0.0 0.00 0.00 0.00 81 1030.1
20260906012224 77 150 0.0 0.0 0.00 0.00 0.00 80 1030.1
20260906011953 77 150 0.0 0.0 0.00 0.00 0.00 80 1029.9
20260906011457 77 172 0.0 0.0 0.00 0.00 0.00 79 1029.7
20260906010657 77 113 0.0 0.0 0.00 0.00 0.00 78 1029.6
20260906010155 77 113 0.0 0.0 0.00 0.00 0.00 78 1029.7
20260906005902 78 113 0.0 0.0 0.00 0.00 0.00 78 1029.7
20260906005109 78 131 0.0 0.0 0.00 0.00 0.00 77 1029.7
20260906004608 78 147 0.0 0.0 0.00 0.00 0.00 76 1029.6
20260906004107 78 146 0.0 0.0 0.00 0.00 0.00 76 1029.6
20260906003607 79 147 0.0 0.0 0.00 0.00 0.00 75 1029.4
20260906003057 79 188 0.0 0.0 0.00 0.00 0.00 75 1029.4
20260906002555 79 195 0.0 0.0 0.00 0.00 0.00 74 1029.4
20260906002047 79 157 0.0 0.0 0.00 0.00 0.00 74 1029.4
20260906001544 80 147 0.0 0.0 0.00 0.00 0.00 73 1029.3
20260906001017 80 202 0.0 0.0 0.00 0.00 0.00 73 1029.2
20260906000516 80 119 0.0 2.0 0.00 0.00 0.00 73 1029.2
20260905235952 80 217 0.0 2.0 0.00 0.00 0.00 73 1029.2
20260905235454 80 125 0.0 1.0 0.00 0.00 0.00 73 1029.1
20260905234949 80 117 0.0 4.0 0.00 0.00 0.00 72 1029.0
20260905234448 80 99 0.0 4.0 0.00 0.00 0.00 71 1029.1
20260905234204 81 115 0.0 3.0 0.00 0.00 0.00 70 1029.1
20260905233430 81 186 0.0 3.0 0.00 0.00 0.00 70 1029.2
20260905233142 81 117 0.0 3.0 0.00 0.00 0.00 70 1029.1
20260905232351 81 146 0.0 1.0 0.00 0.00 0.00 70 1029.1
20260905231851 81 98 0.0 1.0 0.00 0.00 0.00 69 1029.0
20260905231622 82 121 0.0 1.0 0.00 0.00 0.00 68 1028.9
20260905230840 82 114 0.0 5.0 0.00 0.00 0.00 68 1028.7
20260905230322 82 82 0.0 5.0 0.00 0.00 0.00 67 1028.7
20260905225822 83 94 0.0 6.0 0.00 0.00 0.00 67 1028.8
20260905225258 83 132 0.0 6.0 0.00 0.00 0.00 66 1028.7
20260905225018 83 104 0.0 6.0 0.00 0.00 0.00 66 1028.5
20260905224246 83 111 0.0 6.0 0.00 0.00 0.00 65 1028.4
20260905223722 83 94 0.0 3.0 0.00 0.00 0.00 66 1028.4
20260905223427 83 90 0.0 2.0 0.00 0.00 0.00 65 1028.3
20260905222648 83 99 0.0 2.0 0.00 0.00 0.00 67 1028.3
20260905222144 83 107 0.0 2.0 0.00 0.00 0.00 66 1028.2
20260905221647 83 74 0.0 1.0 0.00 0.00 0.00 66 1028.3
20260905221624 83 109 0.0 1.0 0.00 0.00 0.00 66 1028.4
20260905220607 83 107 0.0 1.0 0.00 0.00 0.00 67 1028.4
20260905220557 82 71 0.0 1.0 0.00 0.00 0.00 68 1028.5
20260905215544 82 69 0.0 0.0 0.00 0.00 0.00 68 1028.6
20260905215315 82 53 0.0 0.0 0.00 0.00 0.00 69 1028.7
20260905214544 82 95 0.0 2.0 0.00 0.00 0.00 69 1028.7
20260905214040 82 99 0.0 2.0 0.00 0.00 0.00 68 1028.8
20260905213539 82 93 0.0 1.0 0.00 0.00 0.00 68 1028.9
20260905213039 83 47 0.0 0.0 0.00 0.00 0.00 69 1028.9
20260905212540 83 47 0.0 0.0 0.00 0.00 0.00 68 1028.9
20260905212035 83 59 0.0 1.0 0.00 0.00 0.00 68 1028.9
20260905211534 83 68 0.0 1.0 0.00 0.00 0.00 67 1028.9
20260905211035 83 30 0.0 6.0 0.00 0.00 0.00 68 1028.9
20260905210528 84 114 0.0 6.0 0.00 0.00 0.00 66 1028.9
20260905210004 84 92 0.0 7.0 0.00 0.00 0.00 65 1028.9
20260905205706 85 99 0.0 7.0 0.00 0.00 0.00 67 1028.8
20260905205142 85 30 0.0 8.0 0.00 0.00 0.00 67 1028.8
20260905204349 84 32 0.0 3.0 0.00 0.00 0.00 69 1028.8
20260905204119 83 75 0.0 10.0 0.00 0.00 0.00 70 1028.8
20260905203338 83 43 0.0 10.0 0.00 0.00 0.00 70 1029.0
20260905202815 83 59 0.0 6.0 0.00 0.00 0.00 70 1029.1
20260905202248 83 5 0.0 6.0 0.00 0.00 0.00 70 1029.1
20260905202014 83 65 0.0 3.0 0.00 0.00 0.00 71 1029.3
20260905201239 83 68 0.0 5.0 0.00 0.00 0.00 71 1029.4
20260905200727 83 79 0.0 5.0 0.00 0.00 0.00 70 1029.4
20260905200224 83 63 0.0 4.0 0.00 0.00 0.00 70 1029.8
20260905195723 83 98 0.0 4.0 0.00 0.00 0.00 71 1030.0
20260905195155 83 80 0.0 3.0 0.00 0.00 0.00 71 1030.0
20260905194924 83 102 0.0 1.0 0.00 0.00 0.00 71 1030.1
20260905194128 83 108 0.0 1.0 0.00 0.00 0.00 72 1030.1
20260905193605 83 86 0.0 0.0 0.00 0.00 0.00 73 1030.1
20260905193109 82 24 0.0 0.0 0.00 0.00 0.00 73 1030.2
20260905192543 82 70 0.0 3.0 0.00 0.00 0.00 73 1030.3
20260905192014 82 29 0.0 0.0 0.00 0.00 0.00 72 1030.4
20260905191745 82 29 0.0 0.0 0.00 0.00 0.00 72 1030.6
20260905191007 82 29 0.0 0.0 0.00 0.00 0.00 73 1030.6
20260905190504 82 28 0.0 0.0 0.00 0.00 0.00 73 1030.7
20260905185955 82 28 0.0 0.0 0.00 0.00 0.00 72 1030.8
20260905185426 82 28 0.0 0.0 0.00 0.00 0.00 71 1030.9
20260905184923 83 165 0.0 0.0 0.00 0.00 0.00 71 1030.8
20260905184423 83 138 0.0 0.0 0.00 0.00 0.00 71 1030.9
20260905183854 83 136 0.0 0.0 0.00 0.00 0.00 71 1030.7
20260905183353 83 136 0.0 0.0 0.00 0.00 0.00 71 1030.9
20260905182827 82 211 0.0 0.0 0.00 0.00 0.00 73 1030.8
20260905182322 82 211 0.0 0.0 0.00 0.00 0.00 73 1030.9
20260905182051 82 169 0.0 0.0 0.00 0.00 0.00 74 1031.0
20260905181522 80 187 0.0 0.0 0.00 0.00 0.00 77 1030.9
20260905181019 80 117 0.0 1.0 0.00 0.00 0.00 78 1031.0
20260905180518 79 181 0.0 0.0 0.00 0.00 0.00 78 1031.1
20260905175739 79 127 0.0 0.0 0.00 0.00 0.00 80 1031.2
20260905175213 78 191 0.0 0.0 0.00 0.00 0.00 80 1031.2
20260905174647 77 185 0.0 0.0 0.00 0.00 0.00 82 1031.2
20260905174353 77 124 0.0 0.0 0.00 0.00 0.00 83 1031.2
20260905173554 76 173 0.0 0.0 0.00 0.00 0.00 84 1031.5
20260905173038 76 205 0.0 0.0 0.00 0.00 0.00 85 1031.6
20260905172815 75 178 0.0 3.0 0.00 0.00 0.00 86 1031.6
20260905172009 75 101 0.0 3.0 0.00 0.00 0.00 87 1031.7
20260905171718 74 90 0.0 3.0 0.00 0.00 0.00 87 1031.7
20260905170918 74 80 0.0 3.0 0.00 0.00 0.00 87 1031.8
20260905170416 74 103 0.0 0.0 0.00 0.00 0.00 88 1031.8
20260905165900 74 86 0.0 0.0 0.00 0.00 0.00 89 1031.8
20260905165359 74 113 0.0 0.0 0.00 0.00 0.00 90 1031.8
20260905164837 73 113 0.0 1.0 0.00 0.00 0.00 90 1031.7
20260905164309 73 109 0.0 2.0 0.00 0.00 0.00 91 1031.7
20260905163807 73 88 0.0 2.0 0.00 0.00 0.00 91 1032.0
20260905163246 73 69 0.0 0.0 0.00 0.00 0.00 92 1031.8
20260905162746 73 66 0.0 0.0 0.00 0.00 0.00 93 1032.0
20260905162248 73 88 0.0 0.0 0.00 0.00 0.00 93 1031.8
20260905161722 72 82 0.0 0.0 0.00 0.00 0.00 94 1031.6
20260905161158 72 102 0.0 0.0 0.00 0.00 0.00 95 1031.5
20260905160630 72 96 0.0 0.0 0.00 0.00 0.00 95 1031.5
20260905160127 72 5 0.0 0.0 0.00 0.00 0.00 95 1031.5
20260905155831 71 68 0.0 0.0 0.00 0.00 0.00 96 1031.5
20260905155045 71 32 0.0 0.0 0.00 0.00 0.00 96 1031.5
20260905154544 71 76 0.0 0.0 0.00 0.00 0.00 97 1031.4
20260905154241 70 58 0.0 0.0 0.00 0.00 0.00 97 1031.5
20260905153442 70 58 0.0 0.0 0.00 0.00 0.00 97 1031.5
20260905152941 70 100 0.0 0.0 0.00 0.00 0.00 97 1031.5
20260905152424 70 100 0.0 0.0 0.00 0.00 0.00 97 1031.7
20260905151926 70 100 0.0 0.0 0.00 0.00 0.00 97 1031.6
20260905151358 70 100 0.0 0.0 0.00 0.00 0.00 97 1031.6
20260905150857 70 100 0.0 0.0 0.00 0.00 0.00 97 1031.4
20260905150352 69 17 0.0 0.0 0.00 0.00 0.00 97 1031.2
20260905145849 69 67 0.0 0.0 0.00 0.00 0.00 97 1031.0
20260905145346 69 13 0.0 0.0 0.00 0.00 0.00 97 1031.0
20260905144848 69 58 0.0 0.0 0.00 0.00 0.00 97 1030.9
20260905144320 69 355 0.0 0.0 0.00 0.00 0.00 97 1030.8
20260905143816 69 19 0.0 0.0 0.00 0.00 0.00 97 1030.9
20260905143314 69 21 0.0 0.0 0.00 0.00 0.00 97 1031.0
20260905142812 69 102 0.0 0.0 0.00 0.00 0.00 97 1030.9
20260905142255 69 24 0.0 0.0 0.00 0.00 0.00 97 1031.0
20260905141755 69 10 0.0 0.0 0.00 0.00 0.00 97 1031.0
20260905141245 69 12 0.0 0.0 0.00 0.00 0.00 97 1030.9
20260905140744 69 20 0.0 0.0 0.00 0.00 0.00 97 1030.9
20260905140247 69 34 0.0 0.0 0.00 0.00 0.00 97 1031.0
20260905135718 68 26 0.0 0.0 0.00 0.00 0.00 97 1030.9
20260905135215 68 30 0.0 0.0 0.00 0.00 0.00 97 1030.9
20260905134704 68 30 0.0 0.0 0.00 0.00 0.00 97 1031.0
20260905134202 68 36 0.0 0.0 0.00 0.00 0.00 97 1031.0
20260905133634 68 39 0.0 0.0 0.00 0.00 0.00 97 1031.1
20260905133135 68 38 0.0 0.0 0.00 0.00 0.00 97 1031.1
20260905132606 68 29 0.0 0.0 0.00 0.00 0.00 97 1031.1
20260905132101 68 28 0.0 0.0 0.00 0.00 0.00 97 1030.9
20260905131537 68 28 0.0 0.0 0.00 0.00 0.00 97 1030.9
20260905131034 68 28 0.0 0.0 0.00 0.00 0.00 97 1030.8
20260905130536 68 28 0.0 0.0 0.00 0.00 0.00 97 1030.8
20260905130255 68 28 0.0 0.0 0.00 0.00 0.00 96 1030.6
20260905125457 68 32 0.0 0.0 0.00 0.00 0.00 96 1030.4
20260905124956 68 32 0.0 0.0 0.00 0.00 0.00 96 1030.3
20260905124431 68 32 0.0 0.0 0.00 0.00 0.00 96 1030.1
20260905124144 67 32 0.0 0.0 0.00 0.00 0.00 96 1029.8
20260905123413 67 28 0.0 0.0 0.00 0.00 0.00 96 1029.4
20260905122904 67 28 0.0 0.0 0.00 0.00 0.00 96 1029.4
20260905122407 67 22 0.0 0.0 0.00 0.00 0.00 96 1029.3
20260905122125 67 39 0.0 0.0 0.00 0.00 0.00 96 1029.4
20260905121356 67 41 0.0 0.0 0.00 0.00 0.00 96 1029.7
20260905120854 67 41 0.0 0.0 0.00 0.00 0.00 96 1029.7
20260905120352 67 38 0.0 0.0 0.00 0.00 0.00 96 1029.9
20260905115829 67 29 0.0 0.0 0.00 0.00 0.00 96 1030.0
20260905115308 67 29 0.0 0.0 0.00 0.00 0.00 96 1030.0
20260905114810 67 29 0.0 0.0 0.00 0.00 0.00 96 1029.9
20260905114241 67 44 0.0 0.0 0.00 0.00 0.00 96 1029.7
20260905113736 67 5 0.0 0.0 0.00 0.00 0.00 96 1029.7
20260905113237 67 5 0.0 1.0 0.00 0.00 0.00 96 1029.4
20260905113007 67 11 0.0 1.0 0.00 0.00 0.00 96 1029.4
20260905112231 67 69 0.0 1.0 0.00 0.00 0.00 96 1029.3
20260905111732 67 88 0.0 1.0 0.00 0.00 0.00 96 1029.2
20260905111215 67 20 0.0 6.0 0.00 0.00 0.00 96 1029.3
20260905110630 67 20 0.0 0.0 0.00 0.00 0.00 96 1029.3
20260905110107 67 13 0.0 0.0 0.00 0.00 0.00 96 1029.4
20260905105548 67 18 0.0 0.0 0.00 0.00 0.00 96 1029.6
20260905105026 67 44 0.0 0.0 0.00 0.00 0.00 96 1029.6
20260905104504 67 17 0.0 0.0 0.00 0.00 0.00 96 1029.3
20260905104002 67 16 0.0 0.0 0.00 0.00 0.00 96 1029.3
20260905103732 67 11 0.0 0.0 0.00 0.00 0.00 96 1029.2
20260905103001 67 11 0.0 0.0 0.00 0.00 0.00 96 1029.3
20260905102500 67 16 0.0 0.0 0.00 0.00 0.00 96 1029.1
20260905102440 67 45 0.0 1.0 0.00 0.00 0.00 96 1029.2
20260905101411 67 63 0.0 0.0 0.00 0.00 0.00 96 1029.1
20260905100844 67 14 0.0 0.0 0.00 0.00 0.00 95 1028.8
20260905100338 67 26 0.0 1.0 0.00 0.00 0.00 95 1028.8
20260905095837 67 38 0.0 1.0 0.00 0.00 0.00 95 1029.1
20260905095315 67 38 0.0 1.0 0.00 0.00 0.00 95 1029.1
20260905094809 67 19 0.0 1.0 0.00 0.00 0.00 95 1028.7
20260905094310 67 22 0.0 1.0 0.00 0.00 0.00 95 1028.4
20260905093743 67 35 0.0 0.0 0.00 0.00 0.00 95 1028.4
20260905093245 67 18 0.0 2.0 0.00 0.00 0.00 95 1028.4
20260905092717 67 19 0.0 2.0 0.00 0.00 0.00 95 1028.4
20260905092213 67 53 0.0 1.0 0.00 0.00 0.00 95 1028.4
20260905091712 67 28 0.0 1.0 0.00 0.00 0.00 95 1028.4
20260905091146 67 21 0.0 1.0 0.00 0.00 0.00 95 1028.5
20260905090631 67 24 0.0 0.0 0.00 0.00 0.00 95 1028.6
20260905090104 67 38 0.0 0.0 0.00 0.00 0.00 95 1028.8
20260905085559 67 48 0.0 0.0 0.00 0.00 0.00 95 1028.9
20260905085030 67 35 0.0 0.0 0.00 0.00 0.00 94 1029.0
20260905084505 67 33 0.0 0.0 0.00 0.00 0.00 94 1028.9
20260905083943 67 31 0.0 0.0 0.00 0.00 0.00 94 1028.8
20260905083432 67 31 0.0 1.0 0.00 0.00 0.00 94 1028.8
20260905082928 67 21 0.0 1.0 0.00 0.00 0.00 94 1028.9
20260905082426 67 22 0.0 1.0 0.00 0.00 0.00 94 1028.8
20260905081857 67 34 0.0 1.0 0.00 0.00 0.00 93 1028.8
20260905081355 67 32 0.0 0.0 0.00 0.00 0.00 93 1028.8
20260905080828 67 355 0.0 0.0 0.00 0.00 0.00 93 1028.8
20260905080536 67 348 0.0 0.0 0.00 0.00 0.00 93 1028.9
20260905075804 67 36 0.0 0.0 0.00 0.00 0.00 93 1029.1
20260905075238 67 36 0.0 0.0 0.00 0.00 0.00 93 1029.0
20260905074711 67 36 0.0 0.0 0.00 0.00 0.00 93 1029.1
20260905074147 67 28 0.0 0.0 0.00 0.00 0.00 92 1029.1
20260905073644 67 30 0.0 0.0 0.00 0.00 0.00 92 1029.0
20260905073147 67 30 0.0 0.0 0.00 0.00 0.00 92 1029.2
20260905072622 68 23 0.0 0.0 0.00 0.00 0.00 92 1029.2
20260905072557 68 28 0.0 0.0 0.00 0.00 0.00 92 1029.0
20260905071800 68 36 0.0 0.0 0.00 0.00 0.00 91 1028.9
20260905071021 68 32 0.0 0.0 0.00 0.00 0.00 91 1029.1
20260905070518 68 22 0.0 0.0 0.00 0.00 0.00 91 1029.2
20260905070238 68 36 0.0 0.0 0.00 0.00 0.00 91 1029.2
20260905065506 68 37 0.0 0.0 0.00 0.00 0.00 91 1029.1
20260905064939 68 32 0.0 0.0 0.00 0.00 0.00 91 1029.2